INTELSAT 1R (IS-1R) (26608 NORAD) Tracking and Keplerian Element Data

This shows tracking and keplerian element data for the satellite.

Feedback or suggestion? Click here.




ElementValue
Catalog26608
NameINTELSAT 1R (IS-1R)
Epoch Orbit6469
Epoch Day201.81710902
Epoch Year2018
RAAN92.2282
Inclination1.1539
Eccentricity0.0001437
Argument of Perigee349.7324
Mean Anonmoly307.8329
Mean Motion1.00271853
Decay Rate-1.54E-06
L11 26608U 00072A 18201.81710902 -.00000154 00000-0 00000+0 0 9991
L22 26608 1.1539 92.2282 0001437 349.7324 307.8329 1.00271853 64699

Live tracking and technical data element details for INTELSAT 1R (IS-1R) (NORAD 26608). INTELSAT 1R (IS-1R) can be tracked NOW for your location showing map with azimuth and elevation plus other details from your city location.

Track the satellite on the map from your city or location and see movement details for azimuth, elevation, latitude, longitude, range, height, and movement on the map or in text.







IsCatalogInMostPopularTable: catalog: 26608, numindb: 43
Update: records affected: 1



GetName: 26608 INTELSAT 1R (IS-1R)

Hit Count: updated at: Sat, 21 Jul 2018 07:53:22 GMT